#timestamp,LO_Frequency,Hit,StdDev 
1651302015.0,286046997.3,N
1651302015.9,286046997.3,N
1651302035.8,286046996.5,N
1651302055.6,286046999.3,N
1651302075.4,286046998.3,N
1651302095.3,286046997.0,N
1651302115.1,286046994.8,N
1651302135.9,286046990.2,Y
1651302155.7,286046992.1,P
1651302175.5,286046993.4,N
1651302195.4,286046997.9,N
1651302215.2,286046997.4,N
1651302235.0,286046995.8,N
1651302235.9,286046995.8,N
1651302255.8,286046996.1,N
1651302275.6,286046996.2,N
1651302295.5,286046996.1,N
1651302315.3,286046995.8,N
1651302335.1,286046996.7,N
1651302355.9,286046995.0,Y
1651302375.7,286046998.8,P
1651302395.5,286046998.7,N
1651302415.4,286046998.7,N
1651302435.2,286046997.1,N
1651302455.1,286046996.8,N
1651302456.0,286046996.8,N
1651302475.8,286046999.4,N
1651302495.6,286046998.9,N
1651302515.5,286046995.5,Y
1651302535.3,286046995.7,P
1651302555.2,286046994.9,P
1651302575.9,286046999.4,N
1651302595.7,286047000.5,N
1651302615.6,286047002.5,N
1651302635.4,286047004.0,N
1651302655.2,286047001.5,N
1651302675.1,286047001.6,N
1651302676.0,286047001.6,N
1651302695.8,286047003.9,N
1651302715.7,286047002.7,N
1651302735.5,286047001.3,N
1651302755.3,286047001.8,N
1651302775.2,286047001.6,N
1651302795.9,286047002.1,N
1651302815.7,286047001.9,N
1651302835.6,286047000.9,N
1651302855.4,286047001.6,N
1651302875.3,286047001.5,N
1651302895.1,286047000.0,N
1651302896.0,286047000.0,N
1651302915.8,286046999.9,N
1651302935.7,286047004.2,N
1651302955.5,286047004.2,N
1651302975.3,286047003.9,N
1651302995.2,286047003.5,N
1651303015.0,286047004.9,N
1651303015.9,286047004.9,N
1651303035.8,286047006.9,N
1651303055.6,286047004.8,N
1651303075.4,286047007.1,N
1651303095.3,286047007.6,Y
1651303115.1,286047001.3,P
1651303135.8,286047001.6,P
1651303155.7,286047002.4,P
1651303175.5,286047002.0,Y
1651303195.4,286046998.6,P
1651303215.2,286046998.3,N
1651303235.0,286046998.7,N
1651303235.9,286046998.7,N
1651303255.8,286046999.5,N
1651303275.6,286046996.7,N
1651303295.4,286046996.5,N
1651303315.3,286046996.9,N
1651303335.1,286046997.0,N
1651303355.9,286046997.3,N
1651303375.7,286046995.1,Y
1651303395.5,286046997.9,P
1651303415.4,286046997.5,P
1651303435.2,286046997.4,P
1651303455.1,286046997.6,Y
1651303456.0,286046997.6,P
1651303475.8,286046998.8,P
1651303495.6,286046996.9,P
1651303515.5,286046996.8,Y
1651303535.3,286047000.7,P
1651303555.1,286047002.7,N
1651303575.9,286046998.1,N
1651303595.7,286047000.7,N
1651303615.6,286047000.8,N
1651303635.4,286047000.3,N
1651303655.2,286047002.8,N
1651303675.1,286047002.1,N
1651303676.0,286047002.1,N
1651303695.8,286047000.9,N
1651303715.7,286047003.9,N
1651303735.5,286047005.4,Y
1651303755.3,286046999.8,P
1651303775.2,286047001.7,N
1651303795.0,286047002.7,P
1651303795.9,286047002.7,N
1651303815.7,286047000.8,N
1651303835.6,286046996.7,Y
1651303855.4,286046994.4,P
1651303875.3,286046993.1,N
1651303895.1,286046992.5,N
1651303896.0,286046992.5,N
1651303915.8,286046993.0,N
1651303935.7,286046990.3,Y
1651303955.5,286046997.1,P
1651303975.4,286046997.1,N
1651303995.2,286046999.0,N
1651304015.0,286046998.2,N
1651304015.9,286046998.2,N
1651304035.8,286046998.1,N
1651304055.6,286046998.6,N
1651304075.4,286046998.8,N
1651304095.3,286046998.2,N
1651304115.1,286047000.4,N
1651304135.9,286047000.4,N
1651304155.7,286047000.5,N
1651304175.5,286047000.4,N
1651304195.4,286047000.0,N
1651304215.2,286047000.9,N
1651304235.0,286047002.1,N
1651304235.9,286047002.1,N
1651304255.8,286047000.6,N
1651304275.6,286047000.8,N
1651304295.5,286047001.0,N
1651304315.3,286047001.1,N
1651304335.1,286046999.9,N
1651304355.9,286047000.0,N
1651304375.7,286047000.4,N
1651304395.5,286047000.4,N
1651304415.4,286047000.8,N
1651304435.2,286047000.8,N
1651304455.1,286047001.2,N
1651304456.0,286047001.2,N
1651304475.8,286047001.0,N
1651304495.6,286047001.2,N
1651304515.5,286046996.9,N
1651304535.3,286046999.1,N
1651304555.1,286047001.1,N
1651304575.9,286046998.6,N
1651304595.7,286047001.8,N
1651304615.6,286046999.9,N
1651304635.4,286047002.3,N
1651304655.2,286047001.0,N
1651304675.1,286047000.6,N
1651304676.0,286047000.6,N
1651304695.8,286046998.5,N
1651304715.6,286046998.4,N
1651304735.5,286046996.9,N
1651304755.3,286046999.6,N
1651304775.2,286046996.6,N
1651304795.9,286046996.9,N
1651304815.7,286046996.7,N
1651304835.6,286046998.9,N
1651304855.4,286047001.2,N
1651304875.2,286046998.2,N
1651304895.1,286046999.9,N
1651304896.0,286046999.9,N
1651304915.8,286047001.5,N
1651304935.7,286047001.9,N
1651304955.5,286047000.3,N
1651304975.3,286047000.3,N
1651304995.2,286047001.4,N
1651305015.0,286047000.1,N
1651305015.9,286047000.1,N
1651305035.7,286046999.9,N
1651305055.6,286047000.5,N
1651305075.4,286047000.2,N
1651305095.3,286047000.7,N
1651305115.1,286046998.3,N
1651305116.0,286046998.3,N
1651305135.8,286046997.0,N
1651305155.7,286046997.5,N
1651305175.5,286046995.8,N
1651305195.4,286046995.7,N
1651305215.2,286046995.3,N
1651305235.0,286046993.7,Y
1651305235.9,286046993.7,P
1651305255.8,286046996.8,N
1651305275.6,286046997.8,N
1651305295.4,286046996.3,N
1651305315.3,286046995.7,N
1651305335.1,286046997.0,N
1651305355.9,286046994.9,Y
1651305375.7,286046998.5,P
1651305395.5,286046998.3,N
1651305415.4,286046999.2,N
1651305435.2,286046998.7,N
1651305455.0,286046996.5,Y
1651305455.9,286046996.5,P
1651305475.8,286046999.9,N
1651305495.6,286046999.7,N
1651305515.5,286046998.1,N
1651305535.3,286047001.1,N
1651305555.1,286046997.1,N
1651305575.9,286046997.4,N
1651305595.7,286046997.3,N
